Terminal Aerodrome Forecast
Issued by NWS

Home | Current Version | Previous Version | Text Only | Print | Product List | Glossary On
Versions: 1 2 3 4 5 6 7 8 9 10 11 12 13 14 15 16 17 18 19 20 21 22 23 24 25 26 27 28 29 30 31 32 33 34 35
583
FTUS44 KHGX 270521
TAFLBX
TAF
KLBX 270521Z 2706/2806 13007KT P6SM SCT013 BKN018 OVC027
     FM270900 16005KT 6SM BR BKN015 OVC025
      TEMPO 2710/2714 OVC010
     FM271500 17009KT P6SM FEW015 BKN025
     FM271900 18009G16KT P6SM SCT025 BKN035
     FM280200 16009KT P6SM BKN020 OVC030
      TEMPO 2803/2806 OVC012=

USA.gov is the U.S. government's official web portal to all federal, state and local government web resources and services.